CW8399 Weather Reports


Display with metric or nautical units.
time (UTC)temp
F
wind
direction
speed
MPH
gust
MPH
rain 1hr
in
rain 24hr
in
rain mn
in
humidity
%
barometer
mb
20240304122333 48 65 1.0 2.0 0.00 0.00 0.00
20240304121325 48 65 1.0 4.0 0.00 0.00 0.00
20240304120829 48 65 1.0 4.0 0.00 0.00 0.00
20240304120345 48 65 1.0 3.0 0.00 0.00 0.00
20240304115820 48 65 0.0 4.0 0.00 0.00 0.00
20240304115322 48 65 1.0 4.0 0.00 0.00 0.00
20240304114825 49 70 0.0 2.0 0.00 0.00 0.00
20240304114326 49 70 0.0 1.0 0.00 0.00 0.00
20240304113334 49 70 0.0 3.0 0.00 0.00 0.00
20240304112826 49 70 0.0 2.0 0.00 0.00 0.00
20240304112331 49 70 0.0 4.0 0.00 0.00 0.00
20240304111836 49 69 0.0 4.0 0.00 0.00 0.00
20240304110843 49 68 0.0 5.0 0.00 0.00 0.00
20240304110321 49 68 2.0 5.0 0.00 0.00 0.00
20240304105828 49 70 3.0 6.0 0.00 0.00 0.00
20240304105328 49 86 3.0 7.0 0.00 0.00 0.00
20240304104832 49 65 2.0 7.0 0.00 0.00 0.00
20240304104336 49 72 3.0 7.0 0.00 0.00 0.00
20240304103818 49 71 1.0 5.0 0.00 0.00 0.00
20240304103341 49 66 2.0 5.0 0.00 0.00 0.00
20240304102834 49 64 1.0 6.0 0.00 0.00 0.00
20240304102336 49 68 2.0 6.0 0.00 0.00 0.00
20240304101818 50 48 3.0 5.0 0.00 0.00 0.00
20240304101322 50 48 2.0 6.0 0.00 0.00 0.00
20240304100822 50 48 4.0 6.0 0.00 0.00 0.00
20240304100329 50 106 0.0 4.0 0.00 0.00 0.00
20240304095328 50 112 0.0 2.0 0.00 0.00 0.00
20240304094828 50 112 0.0 2.0 0.00 0.00 0.00
20240304094331 50 113 0.0 2.0 0.00 0.00 0.00
20240304093834 51 112 0.0 3.0 0.00 0.00 0.00
20240304093338 51 113 0.0 3.0 0.00 0.00 0.00
20240304092832 51 112 0.0 3.0 0.00 0.00 0.00
20240304092334 51 112 0.0 7.0 0.00 0.00 0.00
20240304091325 52 157 2.0 7.0 0.00 0.00 0.00
20240304090827 52 175 2.0 8.0 0.00 0.00 0.00
20240304085828 52 205 4.0 7.0 0.00 0.00 0.00
20240304085330 52 187 5.0 7.0 0.00 0.00 0.00
20240304084836 52 169 2.0 7.0 0.00 0.00 0.00
20240304083823 52 139 1.0 6.0 0.00 0.00 0.00
20240304083347 52 126 1.0 7.0 0.00 0.00 0.00
20240304082820 52 133 3.0 7.0 0.00 0.00 0.00
20240304082324 52 134 1.0 5.0 0.00 0.00 0.00
20240304081825 52 145 0.0 3.0 0.00 0.00 0.00
20240304080833 53 145 3.0 5.0 0.00 0.00 0.00
20240304080336 53 145 0.0 5.0 0.00 0.00 0.00
20240304075831 53 148 0.0 11.0 0.00 0.00 0.00
20240304075331 53 167 4.0 11.0 0.00 0.00 0.00
20240304074833 53 122 4.0 8.0 0.00 0.00 0.00
20240304074319 53 147 3.0 8.0 0.00 0.00 0.00
20240304073347 53 132 4.0 10.0 0.00 0.00 0.00
20240304072820 53 135 6.0 10.0 0.00 0.00 0.00
20240304071329 53 125 3.0 9.0 0.00 0.00 0.00
20240304070831 53 141 5.0 7.0 0.00 0.00 0.00
20240304070334 53 131 2.0 7.0 0.00 0.00 0.00
20240304065826 54 119 5.0 7.0 0.00 0.00 0.00
20240304065330 54 129 2.0 4.0 0.00 0.00 0.00
20240304064833 54 103 1.0 8.0 0.00 0.00 0.00
20240304064336 54 91 4.0 8.0 0.00 0.00 0.00
20240304063817 54 116 5.0 7.0 0.00 0.00 0.00
20240304063342 54 147 4.0 6.0 0.00 0.00 0.00
20240304062834 54 116 3.0 5.0 0.00 0.00 0.00
20240304062320 54 111 1.0 10.0 0.00 0.00 0.00
20240304061820 55 135 1.0 10.0 0.00 0.00 0.00
20240304061323 55 164 4.0 9.0 0.00 0.00 0.00
20240304060825 55 150 4.0 8.0 0.00 0.00 0.00
20240304060345 55 166 4.0 9.0 0.00 0.00 0.00
20240304055818 55 166 3.0 10.0 0.00 0.00 0.00
20240304055322 55 181 7.0 10.0 0.00 0.00 0.00
20240304054330 55 157 4.0 12.0 0.00 0.00 0.00
20240304053832 56 146 5.0 10.0 0.00 0.00 0.00
20240304053336 56 159 5.0 11.0 0.00 0.00 0.00
20240304052332 56 154 6.0 12.0 0.00 0.00 0.00
20240304051831 56 166 6.0 13.0 0.00 0.00 0.00
20240304051336 56 173 6.0 13.0 0.00 0.00 0.00
20240304050820 56 166 6.0 13.0 0.00 0.00 0.00
20240304050342 56 153 8.0 12.0 0.00 0.00 0.00
20240304045319 57 168 8.0 16.0 0.00 0.00 0.00
20240304044822 57 187 7.0 16.0 0.00 0.00 0.00
20240304044323 57 160 7.0 17.0 0.00 0.00 0.00
20240304043824 57 156 7.0 17.0 0.00 0.00 0.00
20240304043326 57 167 5.0 14.0 0.00 0.00 0.00
20240304042327 57 166 6.0 14.0 0.00 0.00 0.00
20240304041829 57 153 7.0 13.0 0.00 0.00 0.00
20240304041333 58 174 7.0 13.0 0.00 0.00 0.00
20240304040819 58 164 7.0 13.0 0.00 0.00 0.00
20240304040343 58 187 7.0 12.0 0.00 0.00 0.00
20240304035837 58 188 7.0 15.0 0.00 0.00 0.00
20240304035320 58 130 7.0 15.0 0.00 0.00 0.00
20240304034325 58 161 5.0 13.0 0.00 0.00 0.00
20240304033827 58 170 8.0 13.0 0.00 0.00 0.00
20240304033332 59 170 5.0 13.0 0.00 0.00 0.00
20240304032824 59 171 7.0 12.0 0.00 0.00 0.00
20240304032326 59 155 7.0 13.0 0.00 0.00 0.00
20240304031334 59 170 8.0 15.0 0.00 0.00 0.00
20240304030835 59 146 8.0 15.0 0.00 0.00 0.00
20240304030339 59 169 6.0 13.0 0.00 0.00 0.00
20240304025832 59 158 6.0 13.0 0.00 0.00 0.00
20240304024325 60 168 5.0 11.0 0.00 0.00 0.00
20240304023334 60 178 5.0 11.0 0.00 0.00 0.00
20240304022828 60 163 5.0 16.0 0.00 0.00 0.00
20240304022328 60 179 5.0 16.0 0.00 0.00 0.00
20240304021829 61 182 8.0 17.0 0.00 0.00 0.00
20240304020834 61 189 9.0 18.0 0.00 0.00 0.00
20240304020335 61 182 7.0 18.0 0.00 0.00 0.00
20240304015828 61 199 8.0 17.0 0.00 0.00 0.00
20240304015330 61 208 10.0 16.0 0.00 0.00 0.00
20240304014832 62 206 11.0 18.0 0.00 0.00 0.00
20240304014337 62 204 12.0 20.0 0.00 0.00 0.00
20240304013326 62 191 11.0 22.0 0.00 0.00 0.00
20240304012327 63 205 10.0 18.0 0.00 0.00 0.00
20240304011829 63 216 8.0 19.0 0.00 0.00 0.00
20240304011330 63 211 9.0 19.0 0.00 0.00 0.00
20240304010834 63 193 10.0 20.0 0.00 0.00 0.00
20240304005832 64 192 10.0 20.0 0.00 0.00 0.00
20240304005333 64 210 12.0 20.0 0.00 0.00 0.00
20240304004837 64 206 13.0 20.0 0.00 0.00 0.00
20240304004338 64 197 12.0 21.0 0.00 0.00 0.00
20240304003840 64 200 10.0 23.0 0.00 0.00 0.00
20240304003341 65 199 10.0 19.0 0.00 0.00 0.00
20240304002834 65 200 10.0 19.0 0.00 0.00 0.00
20240304002320 65 224 10.0 18.0 0.00 0.00 0.00
20240304001823 65 205 8.0 24.0 0.00 0.00 0.00
20240304001327 65 244 9.0 24.0 0.00 0.00 0.00
20240304000827 65 210 10.0 23.0 0.00 0.00 0.00
20240304000333 66 208 11.0 23.0 0.00 0.00 0.00
20240303235826 66 203 9.0 16.0 0.00 0.00 0.00
20240303234335 66 220 12.0 18.0 0.00 0.00 0.00
20240303233819 66 207 7.0 19.0 0.00 0.00 0.00
20240303233344 66 201 10.0 19.0 0.00 0.00 0.00
20240303232819 66 246 4.0 22.0 0.00 0.00 0.00
20240303232322 66 208 11.0 22.0 0.00 0.00 0.00
20240303231825 66 214 12.0 21.0 0.00 0.00 0.00
20240303231333 66 209 8.0 16.0 0.00 0.00 0.00
20240303230836 66 195 8.0 16.0 0.00 0.00 0.00
20240303225320 66 207 10.0 19.0 0.00 0.00 0.00
20240303224824 66 214 9.0 15.0 0.00 0.00 0.00
20240303223831 66 200 11.0 22.0 0.00 0.00 0.00
20240303223322 66 177 6.0 19.0 0.00 0.00 0.00
20240303222828 66 194 8.0 17.0 0.00 0.00 0.00
20240303222332 66 226 13.0 20.0 0.00 0.00 0.00
20240303221833 66 280 12.0 24.0 0.00 0.00 0.00
20240303221320 66 252 10.0 24.0 0.00 0.00 0.00
20240303220823 66 189 14.0 19.0 0.00 0.00 0.00
20240303220329 66 198 9.0 21.0 0.00 0.00 0.00
20240303215822 66 216 12.0 31.0 0.00 0.00 0.00
20240303215325 66 208 14.0 31.0 0.00 0.00 0.00
20240303214831 66 196 10.0 23.0 0.00 0.00 0.00
20240303214332 66 206 13.0 24.0 0.00 0.00 0.00
20240303213837 66 207 13.0 24.0 0.00 0.00 0.00
20240303213342 66 245 14.0 24.0 0.00 0.00 0.00
20240303212834 66 206 15.0 21.0 0.00 0.00 0.00
20240303212319 66 235 3.0 21.0 0.00 0.00 0.00
20240303211820 66 203 7.0 21.0 0.00 0.00 0.00
20240303210828 65 206 13.0 22.0 0.00 0.00 0.00
20240303210331 65 212 10.0 17.0 0.00 0.00 0.00
20240303205828 65 237 6.0 28.0 0.00 0.00 0.00
20240303205331 65 231 9.0 28.0 0.00 0.00 0.00
20240303204832 65 185 12.0 18.0 0.00 0.00 0.00
20240303204335 65 258 8.0 24.0 0.00 0.00 0.00
20240303203838 65 219 14.0 26.0 0.00 0.00 0.00
20240303203341 65 203 18.0 26.0 0.00 0.00 0.00
20240303202833 65 197 13.0 22.0 0.00 0.00 0.00
20240303202335 65 212 11.0 21.0 0.00 0.00 0.00
20240303201821 64 199 11.0 19.0 0.00 0.00 0.00
20240303200827 64 172 11.0 17.0 0.00 0.00 0.00
20240303200330 64 179 9.0 22.0 0.00 0.00 0.00
20240303195826 64 177 13.0 22.0 0.00 0.00 0.00
20240303195332 64 199 12.0 22.0 0.00 0.00 0.00
20240303194838 64 220 7.0 17.0 0.00 0.00 0.00
20240303194339 63 260 5.0 21.0 0.00 0.00 0.00
20240303193820 63 211 14.0 21.0 0.00 0.00 0.00
20240303193342 63 179 7.0 19.0 0.00 0.00 0.00
20240303192319 63 185 9.0 19.0 0.00 0.00 0.00
20240303191822 62 212 11.0 19.0 0.00 0.00 0.00
20240303191325 62 216 11.0 18.0 0.00 0.00 0.00
20240303190332 62 164 7.0 14.0 0.00 0.00 0.00
20240303185825 61 168 5.0 15.0 0.00 0.00 0.00
20240303185328 61 232 10.0 17.0 0.00 0.00 0.00
20240303184827 61 218 10.0 18.0 0.00 0.00 0.00
20240303184334 61 224 10.0 18.0 0.00 0.00 0.00
20240303183836 61 211 9.0 18.0 0.00 0.00 0.00
20240303183340 61 194 9.0 18.0 0.00 0.00 0.00
20240303182833 60 151 6.0 16.0 0.00 0.00 0.00
20240303182337 60 187 6.0 20.0 0.00 0.00 0.00
20240303181323 59 180 3.0 21.0 0.00 0.00 0.00
20240303180825 59 225 10.0 21.0 0.00 0.00 0.00
20240303180327 59 200 6.0 18.0 0.00 0.00 0.00
20240303175823 59 191 7.0 20.0 0.00 0.00 0.00
20240303175327 59 192 7.0 20.0 0.00 0.00 0.00
20240303174335 58 213 8.0 20.0 0.00 0.00 0.00
20240303173340 58 227 11.0 22.0 0.00 0.00 0.00
20240303172319 57 191 7.0 22.0 0.00 0.00 0.00
20240303171821 57 213 13.0 22.0 0.00 0.00 0.00
20240303171323 57 207 10.0 21.0 0.00 0.00 0.00
20240303170826 57 223 15.0 21.0 0.00 0.00 0.00
20240303170329 56 202 9.0 20.0 0.00 0.00 0.00
20240303165823 56 187 7.0 20.0 0.00 0.00 0.00
20240303165323 56 182 8.0 20.0 0.00 0.00 0.00
20240303164826 56 206 11.0 20.0 0.00 0.00 0.00
20240303164330 56 196 11.0 19.0 0.00 0.00 0.00
20240303163832 55 197 12.0 19.0 0.00 0.00 0.00
20240303163336 55 185 10.0 16.0 0.00 0.00 0.00
20240303162830 55 168 4.0 21.0 0.00 0.00 0.00
20240303161819 55 202 10.0 17.0 0.00 0.00 0.00
20240303161321 54 207 7.0 13.0 0.00 0.00 0.00
20240303160824 54 191 7.0 15.0 0.00 0.00 0.00
20240303155838 54 159 5.0 16.0 0.00 0.00 0.00
20240303155321 54 159 7.0 16.0 0.00 0.00 0.00
20240303154822 54 218 6.0 14.0 0.00 0.00 0.00
20240303154327 53 183 6.0 14.0 0.00 0.00 0.00
20240303153828 53 159 6.0 9.0 0.00 0.00 0.00
20240303153332 53 155 4.0 9.0 0.00 0.00 0.00
20240303152826 53 186 5.0 10.0 0.00 0.00 0.00
20240303152325 53 172 3.0 10.0 0.00 0.00 0.00
20240303151828 53 98 2.0 8.0 0.00 0.00 0.00
20240303151334 53 133 1.0 14.0 0.00 0.00 0.00
20240303150836 52 119 3.0 14.0 0.00 0.00 0.00
20240303150339 52 160 2.0 9.0 0.00 0.00 0.00
20240303145832 52 159 3.0 12.0 0.00 0.00 0.00
20240303145333 52 162 4.0 15.0 0.00 0.00 0.00
20240303144836 52 197 4.0 15.0 0.00 0.00 0.00
20240303144318 52 154 0.0 7.0 0.00 0.00 0.00
20240303143823 52 145 3.0 9.0 0.00 0.00 0.00
20240303143345 52 117 5.0 12.0 0.00 0.00 0.00
20240303142838 52 186 2.0 12.0 0.00 0.00 0.00
20240303142318 52 197 4.0 14.0 0.00 0.00 0.00
20240303141824 52 204 7.0 16.0 0.00 0.00 0.00
20240303140839 52 222 7.0 20.0 0.00 0.00 0.00
20240303140341 52 205 6.0 21.0 0.00 0.00 0.00
20240303135321 52 192 11.0 20.0 0.00 0.00 0.00
20240303134824 52 199 14.0 20.0 0.00 0.00 0.00
20240303133832 52 208 10.0 18.0 0.00 0.00 0.00
20240303133335 52 192 9.0 18.0 0.00 0.00 0.00
20240303132336 52 198 8.0 14.0 0.00 0.00 0.00
20240303131839 52 159 8.0 14.0 0.00 0.00 0.00
20240303131321 52 186 10.0 16.0 0.00 0.00 0.00
20240303130822 52 145 8.0 15.0 0.00 0.00 0.00
20240303130345 52 178 5.0 13.0 0.00 0.00 0.00
20240303125822 52 143 8.0 12.0 0.00 0.00 0.00
20240303125325 52 169 6.0 12.0 0.00 0.00 0.00
20240303124825 52 167 5.0 16.0 0.00 0.00 0.00
20240303124326 52 180 6.0 16.0 0.00 0.00 0.00
20240303123829 52 170 7.0 18.0 0.00 0.00 0.00
20240303123331 53 200 6.0 16.0 0.00 0.00 0.00
20240303122823 53 182 5.0 19.0 0.00 0.00 0.00